{"data":{"norad_id":68382,"intl_designator":"2026-063C","name":"STARLINK-36946","alt_names":[],"object_type":"PAYLOAD","status":"ACTIVE","operator":null,"country":"US","launch_date":"2026-03-26","launch_site_code":"AFWTR","launch_vehicle":null,"mission":null,"orbit_class":"UNKNOWN","rcs_meters":null,"size_class":null,"mass_kg":null,"dimensions":null,"purposes":["comms"],"wikipedia_slug":null,"has_3d_model":false,"image_url":null,"decayed_at":null,"tle_current":{"epoch":"2026-05-25T03:21:34.010208Z","epoch_age_seconds":59080,"freshness":"FRESH","line1":"1 68382U 26063C   26145.13997697  .00030618  00000+0  94653-3 0  9990","line2":"2 68382  97.2870 287.7379 0001109  86.6807 273.4563 15.33456646  9610","mean_motion":15.33456646,"eccentricity":0.0001109,"inclination_deg":97.287,"raan_deg":287.7379,"arg_perigee_deg":86.6807,"mean_anomaly_deg":273.4563,"bstar":0.00094653,"rev_number":961,"period_min":93.905491476151,"perigee_km":464.74956410643,"apogee_km":466.26748468374,"semimajor_km":6843.6455243951,"source":"CELESTRAK","updated_at":"2026-05-25T13:38:21.928482Z"}}}